RANA Weather Reports


Display with metric or nautical units.
time (UTC)temp
F
wind
direction
speed
MPH
gust
MPH
rain 1hr
in
rain 24hr
in
rain mn
in
humidity
%
barometer
mb
20260905191010 61 289 16.0 18.0 0.00 0.00 0.00 52
20260905190510 61 294 16.0 18.0 0.00 0.00 0.00 52
20260905190010 61 289 16.0 18.0 0.00 0.00 0.00 51
20260905185510 61 297 13.0 16.0 0.00 0.00 0.00 51
20260905185010 63 292 16.0 18.0 0.00 0.00 0.00 51
20260905184510 63 296 20.0 25.0 0.00 0.00 0.00 50
20260905184010 63 293 18.0 22.0 0.00 0.00 0.00 50
20260905183510 63 306 18.0 25.0 0.00 0.00 0.00 50
20260905183011 63 291 20.0 25.0 0.00 0.00 0.00 49
20260905182510 63 302 22.0 27.0 0.00 0.00 0.00 49
20260905182013 63 287 25.0 29.0 0.00 0.00 0.00 49
20260905181510 63 288 18.0 20.0 0.00 0.00 0.00 50
20260905181011 63 292 16.0 18.0 0.00 0.00 0.00 49
20260905180511 63 294 18.0 20.0 0.00 0.00 0.00 49
20260905180004 63 288 18.0 20.0 0.00 0.00 0.00 48
20260905175513 63 290 18.0 20.0 0.00 0.00 0.00 48
20260905175010 63 292 16.0 20.0 0.00 0.00 0.00 48
20260905174510 63 293 22.0 25.0 0.00 0.00 0.00 47
20260905174010 63 289 20.0 25.0 0.00 0.00 0.00 48
20260905173527 63 289 22.0 25.0 0.00 0.00 0.00 47
20260905173011 64 290 22.0 25.0 0.00 0.00 0.00 47
20260905172511 64 291 22.0 27.0 0.00 0.00 0.00 46
20260905172012 64 291 31.0 36.0 0.00 0.00 0.00 45
20260905171518 64 292 25.0 29.0 0.00 0.00 0.00 46
20260905171009 64 296 25.0 29.0 0.00 0.00 0.00 45
20260905170510 64 295 22.0 25.0 0.00 0.00 0.00 46
20260905170010 64 298 25.0 27.0 0.00 0.00 0.00 45
20260905165510 66 293 25.0 29.0 0.00 0.00 0.00 45
20260905165011 66 286 22.0 27.0 0.00 0.00 0.00 44
20260905164511 66 280 25.0 29.0 0.00 0.00 0.00 45
20260905164010 66 288 25.0 29.0 0.00 0.00 0.00 45
20260905163510 66 292 22.0 27.0 0.00 0.00 0.00 46
20260905163019 66 296 20.0 22.0 0.00 0.00 0.00 45
20260905162510 66 300 25.0 27.0 0.00 0.00 0.00 45
20260905162011 66 316 22.0 27.0 0.00 0.00 0.00 45
20260905161510 66 292 25.0 31.0 0.00 0.00 0.00 44
20260905161009 66 297 27.0 29.0 0.00 0.00 0.00 46
20260905160511 66 300 20.0 25.0 0.00 0.00 0.00 46
20260905160011 66 308 20.0 27.0 0.00 0.00 0.00 46
20260905155511 66 310 22.0 27.0 0.00 0.00 0.00 46
20260905154517 66 308 20.0 25.0 0.00 0.00 0.00 47
20260905154010 66 318 16.0 20.0 0.00 0.00 0.00 47
20260905153510 66 311 22.0 27.0 0.00 0.00 0.00 43
20260905153011 68 302 25.0 29.0 0.00 0.00 0.00 42
20260905152510 68 299 25.0 29.0 0.00 0.00 0.00 43
20260905152014 66 280 25.0 29.0 0.00 0.00 0.00 43
20260905151510 66 297 20.0 25.0 0.00 0.00 0.00 44
20260905151010 66 294 25.0 29.0 0.00 0.00 0.00 43
20260905150510 66 296 25.0 29.0 0.00 0.00 0.00 43
20260905150020 66 304 25.0 29.0 0.00 0.00 0.00 44
20260905145510 66 300 27.0 29.0 0.00 0.00 0.00 44
20260905145010 66 304 20.0 25.0 0.00 0.00 0.00 43
20260905144510 66 297 22.0 27.0 0.00 0.00 0.00 43
20260905144010 68 306 20.0 25.0 0.00 0.00 0.00 43
20260905143510 66 311 22.0 27.0 0.00 0.00 0.00 44
20260905143010 66 304 25.0 27.0 0.00 0.00 0.00 43
20260905142511 66 293 27.0 34.0 0.00 0.00 0.00 43
20260905142012 66 301 31.0 36.0 0.00 0.00 0.00 42
20260905141510 66 300 25.0 29.0 0.00 0.00 0.00 43
20260905141010 68 305 18.0 20.0 0.00 0.00 0.00 43
20260905140527 66 298 20.0 27.0 0.00 0.00 0.00 44
20260905140011 66 303 22.0 27.0 0.00 0.00 0.00 44
20260905135511 66 307 16.0 22.0 0.00 0.00 0.00 44
20260905135018 66 304 25.0 27.0 0.00 0.00 0.00 44
20260905134511 66 295 29.0 34.0 0.00 0.00 0.00 43
20260905134010 66 303 20.0 25.0 0.00 0.00 0.00 43
20260905133534 66 309 25.0 29.0 0.00 0.00 0.00 43
20260905133011 68 284 25.0 31.0 0.00 0.00 0.00 43
20260905132510 66 298 20.0 25.0 0.00 0.00 0.00 45
20260905132016 66 289 25.0 27.0 0.00 0.00 0.00 43
20260905131511 66 305 22.0 27.0 0.00 0.00 0.00 43
20260905131009 66 295 25.0 27.0 0.00 0.00 0.00 43
20260905130509 66 295 18.0 20.0 0.00 0.00 0.00 46
20260905130010 66 296 22.0 27.0 0.00 0.00 0.00 44
20260905125521 66 292 18.0 22.0 0.00 0.00 0.00 46
20260905125020 66 298 20.0 27.0 0.00 0.00 0.00 46
20260905124517 66 298 18.0 22.0 0.00 0.00 0.00 45
20260905124017 66 287 22.0 27.0 0.00 0.00 0.00 45
20260905123510 66 299 22.0 27.0 0.00 0.00 0.00 46
20260905123010 66 296 18.0 20.0 0.00 0.00 0.00 46
20260905122511 66 294 18.0 22.0 0.00 0.00 0.00 46
20260905122017 64 297 27.0 29.0 0.00 0.00 0.00 47
20260905121512 64 306 22.0 25.0 0.00 0.00 0.00 47
20260905121010 66 312 22.0 27.0 0.00 0.00 0.00 46
20260905120518 68 307 22.0 27.0 0.00 0.00 0.00 45
20260905120010 66 284 27.0 31.0 0.00 0.00 0.00 46
20260905115511 66 294 20.0 25.0 0.00 0.00 0.00 46
20260905115010 66 282 20.0 27.0 0.00 0.00 0.00 47
20260905114511 66 295 25.0 29.0 0.00 0.00 0.00 45
20260905114016 66 294 25.0 27.0 0.00 0.00 0.00 46
20260905113510 66 273 22.0 27.0 0.00 0.00 0.00 45
20260905113011 66 287 22.0 31.0 0.00 0.00 0.00 46
20260905112511 66 295 18.0 20.0 0.00 0.00 0.00 47
20260905112018 64 291 20.0 22.0 0.00 0.00 0.00 50
20260905111510 66 299 22.0 27.0 0.00 0.00 0.00 48
20260905111010 64 282 25.0 29.0 0.00 0.00 0.00 47
20260905110511 66 283 27.0 29.0 0.00 0.00 0.00 46
20260905110011 63 286 25.0 29.0 0.00 0.00 0.00 48
20260905105511 64 280 22.0 27.0 0.00 0.00 0.00 52
20260905105017 64 287 29.0 34.0 0.00 0.00 0.00 50
20260905104510 64 276 31.0 38.0 0.00 0.00 0.00 48
20260905104010 64 287 22.0 27.0 0.00 0.00 0.00 50
20260905103511 64 284 20.0 22.0 0.00 0.00 0.00 50
20260905103011 64 291 25.0 27.0 0.00 0.00 0.00 49
20260905102510 63 286 25.0 29.0 0.00 0.00 0.00 51
20260905102020 64 276 20.0 25.0 0.00 0.00 0.00 50
20260905101520 64 283 20.0 27.0 0.00 0.00 0.00 51
20260905101011 63 284 27.0 27.0 0.00 0.00 0.00 54
20260905100510 63 295 22.0 27.0 0.00 0.00 0.00 51
20260905100010 63 281 25.0 27.0 0.00 0.00 0.00 52
20260905095511 63 287 25.0 29.0 0.00 0.00 0.00 53
20260905095011 63 281 27.0 34.0 0.00 0.00 0.00 57
20260905094511 63 278 22.0 29.0 0.00 0.00 0.00 56
20260905094011 63 278 22.0 29.0 0.00 0.00 0.00 60
20260905093510 61 279 20.0 22.0 0.00 0.00 0.00 59
20260905093011 63 273 22.0 27.0 0.00 0.00 0.00 58
20260905092520 63 252 18.0 22.0 0.00 0.00 0.00 57
20260905092047 63 282 20.0 22.0 0.00 0.00 0.00 58
20260905091511 61 273 22.0 27.0 0.00 0.00 0.00 62
20260905091010 61 283 20.0 20.0 0.00 0.00 0.00 60
20260905090510 61 279 22.0 25.0 0.00 0.00 0.00 58
20260905090011 63 281 20.0 25.0 0.00 0.00 0.00 55
20260905085510 61 274 20.0 25.0 0.00 0.00 0.00 59
20260905085011 61 288 18.0 25.0 0.00 0.00 0.00 60
20260905084511 61 277 22.0 25.0 0.00 0.00 0.00 58
20260905084011 63 293 22.0 27.0 0.00 0.00 0.00 57
20260905083510 61 280 27.0 31.0 0.00 0.00 0.00 58
20260905083012 61 286 27.0 29.0 0.00 0.00 0.00 60
20260905082510 61 282 27.0 29.0 0.00 0.00 0.00 61
20260905082018 61 279 22.0 29.0 0.00 0.00 0.00 63
20260905081511 61 265 20.0 25.0 0.00 0.00 0.00 62
20260905081009 61 281 22.0 25.0 0.00 0.00 0.00 64
20260905080510 61 285 25.0 27.0 0.00 0.00 0.00 63
20260905080010 59 286 27.0 34.0 0.00 0.00 0.00 65
20260905075511 61 265 20.0 27.0 0.00 0.00 0.00 64
20260905075011 61 285 25.0 27.0 0.00 0.00 0.00 64
20260905074511 61 279 22.0 27.0 0.00 0.00 0.00 65
20260905074011 61 273 18.0 22.0 0.00 0.00 0.00 67
20260905073510 59 278 22.0 27.0 0.00 0.00 0.00 67
20260905073011 59 273 18.0 22.0 0.00 0.00 0.00 70
20260905072514 59 280 22.0 27.0 0.00 0.00 0.00 69
20260905072011 59 272 20.0 22.0 0.00 0.00 0.00 71
20260905071510 59 267 20.0 22.0 0.00 0.00 0.00 71
20260905071010 59 272 20.0 22.0 0.00 0.00 0.00 72
20260905070511 59 269 22.0 25.0 0.00 0.00 0.00 72
20260905070010 59 267 20.0 22.0 0.00 0.00 0.00 72
20260905065510 59 262 20.0 22.0 0.00 0.00 0.00 72
20260905065010 59 266 18.0 22.0 0.00 0.00 0.00 72
20260905064510 59 268 18.0 20.0 0.00 0.00 0.00 73
20260905064010 57 268 18.0 20.0 0.00 0.00 0.00 74
20260905063510 57 267 18.0 20.0 0.00 0.00 0.00 75
20260905063011 57 272 20.0 22.0 0.00 0.00 0.00 74
20260905062511 57 271 20.0 22.0 0.00 0.00 0.00 75
20260905062017 57 276 20.0 22.0 0.00 0.00 0.00 76
20260905061511 55 276 20.0 22.0 0.00 0.00 0.00 79
20260905061010 55 275 20.0 22.0 0.00 0.00 0.00 80
20260905060510 55 278 18.0 22.0 0.00 0.00 0.00 80
20260905060011 55 270 22.0 27.0 0.00 0.00 0.00 79
20260905055511 57 268 20.0 22.0 0.00 0.00 0.00 80
20260905055018 57 272 20.0 22.0 0.00 0.00 0.00 80
20260905054511 55 270 20.0 25.0 0.00 0.00 0.00 83
20260905054010 55 273 22.0 22.0 0.00 0.00 0.00 82
20260905053511 57 274 18.0 20.0 0.00 0.00 0.00 81
20260905053011 57 269 20.0 22.0 0.00 0.00 0.00 81
20260905052510 55 268 20.0 20.0 0.00 0.00 0.00 82
20260905052016 57 266 20.0 25.0 0.00 0.00 0.00 80
20260905051511 57 265 20.0 22.0 0.00 0.00 0.00 80
20260905051010 55 261 18.0 20.0 0.00 0.00 0.00 82
20260905050511 55 264 16.0 18.0 0.00 0.00 0.00 82
20260905050010 55 271 18.0 20.0 0.00 0.00 0.00 82
20260905045511 55 267 18.0 20.0 0.00 0.00 0.00 83
20260905045010 55 270 18.0 20.0 0.00 0.00 0.00 85
20260905044510 55 271 18.0 18.0 0.00 0.00 0.00 84
20260905044011 55 267 16.0 18.0 0.00 0.00 0.00 85
20260905043511 55 267 16.0 18.0 0.00 0.00 0.00 84
20260905043010 55 271 13.0 16.0 0.00 0.00 0.00 84
20260905042511 55 268 13.0 16.0 0.00 0.00 0.00 84
20260905042011 55 264 16.0 20.0 0.00 0.00 0.00 83
20260905041511 55 273 16.0 18.0 0.00 0.00 0.00 83
20260905041009 55 273 11.0 13.0 0.00 0.00 0.00 83
20260905040510 55 274 13.0 16.0 0.00 0.00 0.00 83
20260905040010 55 272 13.0 16.0 0.00 0.00 0.00 83
20260905035510 55 276 11.0 13.0 0.00 0.00 0.00 84
20260905035012 55 276 13.0 13.0 0.00 0.00 0.00 83
20260905034509 55 275 11.0 11.0 0.00 0.00 0.00 82
20260905034011 55 272 13.0 18.0 0.00 0.00 0.00 82
20260905033510 55 270 16.0 18.0 0.00 0.00 0.00 81
20260905033010 55 257 13.0 16.0 0.00 0.00 0.00 80
20260905032510 55 234 16.0 22.0 0.00 0.00 0.00 81
20260905032018 55 213 16.0 20.0 0.00 0.00 0.00 80
20260905031510 55 216 20.0 22.0 0.00 0.00 0.00 79
20260905031010 55 227 20.0 22.0 0.00 0.00 0.00 81
20260905030510 55 253 11.0 11.0 0.00 0.00 0.00 82
20260905030011 55 275 11.0 13.0 0.00 0.00 0.00 82
20260905025510 55 276 13.0 13.0 0.00 0.00 0.00 81
20260905025010 55 273 11.0 13.0 0.00 0.00 0.00 81
20260905024510 55 277 16.0 18.0 0.00 0.00 0.00 79
20260905024017 55 267 13.0 16.0 0.00 0.00 0.00 78
20260905023510 55 281 16.0 18.0 0.00 0.00 0.00 77
20260905023010 55 291 18.0 22.0 0.00 0.00 0.00 78
20260905022510 55 287 20.0 22.0 0.00 0.00 0.00 77
20260905022017 55 289 20.0 22.0 0.00 0.00 0.00 76
20260905021510 57 288 22.0 25.0 0.00 0.00 0.00 74
20260905021011 57 294 25.0 27.0 0.00 0.00 0.00 74
20260905020511 57 287 20.0 22.0 0.00 0.00 0.00 73
20260905020010 57 270 16.0 18.0 0.00 0.00 0.00 72
20260905015511 57 295 16.0 18.0 0.00 0.00 0.00 71
20260905015010 57 288 18.0 20.0 0.00 0.00 0.00 72
20260905014511 57 291 18.0 18.0 0.00 0.00 0.00 71
20260905014010 57 291 16.0 18.0 0.00 0.00 0.00 71
20260905013510 57 295 18.0 20.0 0.00 0.00 0.00 72
20260905013011 57 292 16.0 18.0 0.00 0.00 0.00 72
20260905012513 57 289 18.0 20.0 0.00 0.00 0.00 70
20260905012010 57 287 16.0 20.0 0.00 0.00 0.00 70
20260905011510 57 285 16.0 18.0 0.00 0.00 0.00 71
20260905011010 57 284 18.0 20.0 0.00 0.00 0.00 71
20260905010511 57 281 16.0 18.0 0.00 0.00 0.00 70
20260905010011 57 273 13.0 13.0 0.00 0.00 0.00 69
20260905005518 57 280 11.0 13.0 0.00 0.00 0.00 68
20260905005011 57 286 16.0 18.0 0.00 0.00 0.00 68
20260905004511 57 287 11.0 11.0 0.00 0.00 0.00 68
20260905004010 57 282 9.0 11.0 0.00 0.00 0.00 70
20260905003511 57 292 9.0 11.0 0.00 0.00 0.00 68
20260905003010 59 304 13.0 16.0 0.00 0.00 0.00 66
20260905002510 59 301 20.0 25.0 0.00 0.00 0.00 63
20260905002013 59 293 22.0 27.0 0.00 0.00 0.00 62
20260905001510 59 296 22.0 25.0 0.00 0.00 0.00 65
20260905001008 59 294 20.0 25.0 0.00 0.00 0.00 65
20260905000510 59 294 20.0 22.0 0.00 0.00 0.00 64
20260905000011 59 291 20.0 25.0 0.00 0.00 0.00 63
20260904235510 59 288 25.0 27.0 0.00 0.00 0.00 65
20260904235011 59 297 20.0 25.0 0.00 0.00 0.00 67
20260904234510 59 293 20.0 22.0 0.00 0.00 0.00 67
20260904234011 59 293 20.0 22.0 0.00 0.00 0.00 64
20260904233511 59 307 20.0 25.0 0.00 0.00 0.00 65
20260904233010 61 295 25.0 34.0 0.00 0.00 0.00 67
20260904232510 59 282 22.0 25.0 0.00 0.00 0.00 72
20260904232012 61 293 22.0 27.0 0.00 0.00 0.00 71
20260904231511 61 302 27.0 34.0 0.00 0.00 0.00 70
20260904231011 59 293 29.0 38.0 0.00 0.00 0.00 71
20260904230511 59 296 16.0 18.0 0.00 0.00 0.00 77
20260904230010 59 326 11.0 16.0 0.00 0.00 0.00 79
20260904225510 59 311 18.0 22.0 0.00 0.00 0.00 81
20260904225011 59 305 18.0 22.0 0.00 0.00 0.00 82
20260904224510 59 312 22.0 29.0 0.00 0.00 0.00 81
20260904224011 59 302 29.0 36.0 0.00 0.00 0.00 79
20260904223510 59 306 27.0 31.0 0.00 0.00 0.00 82
20260904223018 59 305 27.0 31.0 0.00 0.00 0.00 82
20260904222510 59 310 20.0 27.0 0.00 0.00 0.00 84
20260904222011 59 321 22.0 31.0 0.00 0.00 0.00 83
20260904221510 59 326 29.0 36.0 0.00 0.00 0.00 82
20260904221011 63 325 27.0 34.0 0.00 0.00 0.00 74
20260904220511 63 321 25.0 36.0 0.00 0.00 0.00 71
20260904220011 61 330 25.0 31.0 0.00 0.00 0.00 74
20260904215511 61 337 18.0 22.0 0.00 0.00 0.00 74
20260904215010 61 342 22.0 27.0 0.00 0.00 0.00 73
20260904214511 63 347 27.0 31.0 0.00 0.00 0.00 71
20260904214010 63 346 22.0 27.0 0.00 0.00 0.00 72
20260904213510 63 0 16.0 20.0 0.00 0.00 0.00 71
20260904213011 64 1 11.0 13.0 0.00 0.00 0.00 66
20260904212511 66 334 4.0 4.0 0.00 0.00 0.00 65
20260904212016 66 11 2.0 4.0 0.00 0.00 0.00 67
20260904211511 66 104 9.0 9.0 0.00 0.00 0.00 65
20260904211011 68 123 9.0 11.0 0.00 0.00 0.00 64
20260904210511 68 131 9.0 9.0 0.00 0.00 0.00 64
20260904210011 68 152 4.0 4.0 0.00 0.00 0.00 64
20260904205510 68 171 2.0 4.0 0.00 0.00 0.00 64
20260904205011 68 143 4.0 4.0 0.00 0.00 0.00 65
20260904204510 68 150 4.0 4.0 0.00 0.00 0.00 65
20260904204010 72 122 4.0 7.0 0.00 0.00 0.00 60
20260904203511 72 199 7.0 7.0 0.00 0.00 0.00 59
20260904203011 72 231 9.0 9.0 0.00 0.00 0.00 58
20260904202511 72 254 4.0 4.0 0.00 0.00 0.00 58
20260904202015 72 271 2.0 4.0 0.00 0.00 0.00 58
20260904201510 72 297 4.0 4.0 0.00 0.00 0.00 58
20260904201011 73 273 4.0 7.0 0.00 0.00 0.00 57
20260904200510 73 246 11.0 16.0 0.00 0.00 0.00 57
20260904200010 73 289 9.0 11.0 0.00 0.00 0.00 57
20260904195510 73 288 4.0 4.0 0.00 0.00 0.00 58
20260904195011 73 302 7.0 9.0 0.00 0.00 0.00 58
20260904194511 72 300 7.0 7.0 0.00 0.00 0.00 61
20260904194011 72 316 4.0 7.0 0.00 0.00 0.00 61
20260904193511 73 268 9.0 11.0 0.00 0.00 0.00 56
20260904193011 73 268 11.0 13.0 0.00 0.00 0.00 55
20260904192517 75 268 16.0 18.0 0.00 0.00 0.00 55
20260904192011 75 268 18.0 20.0 0.00 0.00 0.00 54